Content
SEND FEEDBACK

Daily
Averages
Monthly
Summary
United States of America

GATLINBURG, TENNESSEE


Home > North America > United States > Tennessee
Elevation: 1854 feet     Latitude: 35 41N     Longitude: 083 32W

WEATHER
 
SELECT A DAY
Number of Records: 202,081;   Date Range: 1/1/95 - 7/29/14
 
SHARE

PRINT THIS DATA

[ ← Previous Day ]
WEATHER ALMANAC - JANUARY 31, 2013
[ Next Day → ]
[ °C ]   °F
Weather ElementAverageHighLow
Temperature37.5 °F42.1 °F (2:53 pm)33.1 °F (6:53 am)
Dewpoint22.6 °F28 °F (1:53 am)19.9 °F (3:53 pm)
Humidity55.5 %70 % (1:53 am)41 % (3:53 pm)
Barometer30.00 in30.06 in (11:53 am)29.82 in (1:53 am)
Wind Speed16 mph23 mph (2:53 am)
Wind Gust36.8 mph (2:53 am)
Weather ElementAverage
Visibility9.8 mi
Wind DirectionWSW (243 °)

Weather ElementTotal
Precipitation---
Heating Degree Days27.4 (Base 65)
Averaged from 23 records on January 31, 2013
WEATHER CONDITIONS BREAKOUT
WIND DIRECTION BREAKOUT
WEATHER BY HOUR - JANUARY 31, 2013
[ °C ]   °F
Local TimeTemperatureDewpointHumidityBarometerVisibilityWind DirectionWind SpeedGust SpeedPrecipitationEventsConditions
1:53 AM37.0 °F28.0 °F70 %29.82 in10.0 miWest (280°)16.1 mph25.3 mph0.00 inRain-SnowLight Rain
2:53 AM36.0 °F24.1 °F62 %29.86 in10.0 miWest (260°)23.0 mph36.8 mph0.00 inSnowLight Snow
3:53 AM35.1 °F21.9 °F59 %29.89 in9.0 miWest (260°)19.6 mph24.2 mph0.00 inSnowLight Snow
4:53 AM34.0 °F25.0 °F70 %29.89 in7.0 miWest (270°)13.8 mph0.00 inSnowLight Snow
5:53 AM34.0 °F21.0 °F59 %29.93 in9.0 miWSW (250°)18.4 mph21.9 mph0.00 inOvercast
6:53 AM33.1 °F21.0 °F61 %29.95 in10.0 miWest (260°)9.2 mphMostly Cloudy
7:53 AM34.0 °F23.0 °F64 %29.98 in10.0 miWSW (250°)11.5 mphOvercast
8:53 AM34.0 °F21.0 °F59 %30.01 in10.0 miWSW (240°)21.9 mph29.9 mphOvercast
9:53 AM36.0 °F21.0 °F55 %30.04 in10.0 miWSW (240°)16.1 mphOvercast
10:53 AM36.0 °F21.9 °F57 %30.05 in10.0 miWSW (250°)18.4 mph27.6 mphOvercast
11:53 AM37.9 °F21.9 °F53 %30.06 in10.0 miWSW (250°)17.3 mph23.0 mphOvercast
12:53 PM39.0 °F23.0 °F53 %30.06 in10.0 miSW (230°)17.3 mph26.5 mphMostly Cloudy
1:53 PM39.9 °F21.0 °F47 %30.05 in10.0 miWSW (240°)16.1 mphMostly Cloudy
2:53 PM42.1 °F21.0 °F43 %30.05 in10.0 miWSW (240°)16.1 mph23.0 mphMostly Cloudy
3:53 PM42.1 °F19.9 °F41 %30.05 in10.0 miWSW (250°)17.3 mph27.6 mphScattered Clouds
4:53 PM42.1 °F21.0 °F43 %30.04 in10.0 miWSW (250°)15.0 mphPartly Cloudy
5:53 PM39.9 °F21.9 °F49 %30.04 in10.0 miSW (230°)10.4 mphPartly Cloudy
6:53 PM37.0 °F21.9 °F54 %30.04 in10.0 miWSW (240°)9.2 mphPartly Cloudy
7:53 PM37.9 °F23.0 °F55 %30.06 in10.0 miWSW (240°)12.7 mphClear
8:53 PM37.9 °F24.1 °F57 %30.05 in10.0 miSW (220°)13.8 mphMostly Cloudy
9:53 PM37.9 °F23.0 °F55 %30.03 in10.0 miSSW (210°)16.1 mphScattered Clouds
10:53 PM37.9 °F24.1 °F57 %30.01 in10.0 miSSW (210°)18.4 mphScattered Clouds
11:53 PM41.0 °F25.0 °F53 %30.00 in10.0 miSW (220°)20.7 mph31.1 mphOvercast
Hourly data recorded from KTYS, located miles away from Gatlinburg, Tennessee







STORIES FROM OUR PARTNERS